Weather History for New Orleans, LA

Change the Weather History Date:

Friday, February 1, 2013

  Actual Average Record
Temperature  
Mean Temperature 55 °F -  
Max Temperature 64 °F 65 °F 82 °F (1957)
Min Temperature 46 °F 47 °F 27 °F (1980)
Degree Days  
Heating Degree Days 10    
Growing Degree Days 5 (Base 50)    
Moisture  
Dew Point 39 °F    
Average Humidity 60    
Maximum Humidity 83    
Minimum Humidity 37    
Precipitation  
Precipitation 0.00 in - - ()
Sea Level Pressure  
Sea Level Pressure 30.36 in    
Wind  
Wind Speed 4 mph (East)    
Max Wind Speed 13 mph    
Max Gust Speed -    
Visibility 10 miles    
Events      
Averages and records for this station are not official NWS values.
T = Trace of Precipitation, MM = Missing Value Source: NWS Daily Summary

Daily Weather History Graph

Daily Weather History Graph

Search for Another Location

Airport:

Trip Planner

Search our weather history database for the weather conditions in past years. The results will help you decide how hot, cold, wet, or windy it might be!

Date:

Astronomy

Feb. 01, 2013 Rise Set
Actual Time 6:51 AM CST 5:38 PM CST
Civil Twilight 6:26 AM CST 6:03 PM CST
Nautical Twilight 5:57 AM CST 6:32 PM CST
Astronomical Twilight 5:29 AM CST 7:00 PM CST
Moon 11:13 PM CST (2/1) 9:53 AM CST (2/1)
Length of Visible Light 11h 37m
Length of Day
10h 47m
Waning Gibbous, 70% of the Moon is Illuminated
Feb 1
Waning Gibbous
Feb 3
Last Quarter
Feb 10
New
Feb 17
First Quarter
Feb 25
Full

Hourly Weather History & Observations

Time (CST) Temp. Windchill Dew Point Humidity Pressure Visibility Wind Dir Wind Speed Gust Speed Precip Events Conditions
12:53 AM 45.0 °F 41.8 °F 36.0 °F 71% 30.36 in 10.0 mi West 5.8 mph - N/A   Mostly Cloudy
1:53 AM 48.9 °F - 36.0 °F 61% 30.35 in 10.0 mi SW 3.5 mph - N/A   Mostly Cloudy
2:53 AM 48.0 °F - 36.0 °F 63% 30.33 in 10.0 mi Calm Calm - N/A   Mostly Cloudy
3:53 AM 46.0 °F - 37.9 °F 73% 30.34 in 10.0 mi Calm Calm - N/A   Mostly Cloudy
4:53 AM 46.0 °F - 37.9 °F 73% 30.35 in 10.0 mi Calm Calm - N/A   Mostly Cloudy
5:53 AM 46.9 °F - 37.9 °F 71% 30.37 in 10.0 mi Calm Calm - N/A   Overcast
6:53 AM 48.0 °F - 37.9 °F 68% 30.38 in 10.0 mi Calm Calm - N/A   Mostly Cloudy
7:53 AM 50.0 °F - 41.0 °F 71% 30.40 in 10.0 mi NNW 3.5 mph - N/A   Mostly Cloudy
8:53 AM 54.0 °F - 39.9 °F 59% 30.41 in 10.0 mi North 9.2 mph - N/A   Mostly Cloudy
9:53 AM 55.0 °F - 39.9 °F 57% 30.42 in 10.0 mi NNE 12.7 mph - N/A   Mostly Cloudy
10:53 AM 57.0 °F - 39.0 °F 51% 30.41 in 10.0 mi NE 8.1 mph - N/A   Mostly Cloudy
11:53 AM 57.0 °F - 39.9 °F 53% 30.40 in 10.0 mi ENE 5.8 mph - N/A   Mostly Cloudy
12:53 PM 59.0 °F - 39.0 °F 48% 30.38 in 10.0 mi Variable 4.6 mph - N/A   Partly Cloudy
1:53 PM 60.1 °F - 39.9 °F 47% 30.36 in 10.0 mi NE 6.9 mph - N/A   Partly Cloudy
2:53 PM 62.1 °F - 37.0 °F 39% 30.35 in 10.0 mi Variable 3.5 mph - N/A   Partly Cloudy
3:53 PM 62.1 °F - 36.0 °F 38% 30.33 in 10.0 mi Calm Calm - N/A   Partly Cloudy
4:53 PM 63.0 °F - 36.0 °F 37% 30.33 in 10.0 mi NE 5.8 mph - N/A   Partly Cloudy
5:53 PM 57.0 °F - 39.0 °F 51% 30.33 in 10.0 mi South 6.9 mph - N/A   Partly Cloudy
6:53 PM 55.9 °F - 39.9 °F 55% 30.34 in 10.0 mi SE 4.6 mph - N/A   Clear
7:53 PM 53.1 °F - 42.1 °F 66% 30.34 in 10.0 mi SE 6.9 mph - N/A   Clear
8:53 PM 52.0 °F - 43.0 °F 71% 30.35 in 10.0 mi SE 6.9 mph - N/A   Clear
9:53 PM 50.0 °F - 43.0 °F 77% 30.35 in 10.0 mi SE 4.6 mph - N/A   Clear
10:53 PM 48.0 °F - 43.0 °F 83% 30.35 in 10.0 mi SSE 4.6 mph - N/A   Partly Cloudy
11:53 PM 48.2 °F - 42.8 °F 82% 30.34 in 10.0 mi Calm Calm - N/A   Partly Cloudy